Location: Il Ritiro
(43.4167°N, 13.1333°E)
Time: 01:32:25
(UTC+00:00)

Resurs 1-4 Rocket - Pass Details

Date: 05 July 2020
Orbit: 800 x 814 km, 98.6° (Epoch: 11 August)

Event Time Altitude Azimuth Distance (km) Brightness Sun altitude
Rises 23:40:05 0° 27° (NNE) 3,348 6.5 -23.6°
Reaches altitude 10° 23:42:58 10° 42° (NE) 2,410 5.3 -23.5°
Maximum altitude 23:47:05 22° 93° (E) 1,699 3.8 -23.4°
Enters shadow 23:48:44 19° 118° (ESE) 1,831 3.8 -23.4°
